Jacksonville, FL

9:54 AM EST on February 19, 2017 (GMT -0500)
Cecil

Weather History for KVQQ - January, 2014

Change the Weather History Date:

Friday, January 17, 2014

  Actual Average (KNIP) Record (KNIP)
Temperature  
Mean Temperature 46 °F -  
Max Temperature 64 °F 63 °F 79 °F (2017)
Min Temperature 28 °F 44 °F 46 °F (2015)
Degree Days  
Heating Degree Days 19    
Moisture  
Dew Point 36 °F    
Average Humidity 81    
Maximum Humidity 100    
Minimum Humidity 42    
Precipitation  
Precipitation 0.00 in - - ()
Sea Level Pressure  
Sea Level Pressure 30.12 in    
Wind  
Wind Speed 3 mph (SW)    
Max Wind Speed 17 mph    
Max Gust Speed 20 mph    
Visibility 10 miles    
Events      
Averages and records for this station are not official NWS values.
T = Trace of Precipitation, MM = Missing Value Source: NWS Daily Summary

Daily Weather History Graph

Daily Weather History Graph

Search for Another Location

Airport or City:

Trip Planner

Search our weather history database for the weather conditions in past years. The results will help you decide how hot, cold, wet, or windy it might be!

Date:

Astronomy

Jan. 17, 2014 Rise Set
Actual Time 7:24 AM EST 5:51 PM EST
Civil Twilight 6:58 AM EST 6:17 PM EST
Nautical Twilight 6:29 AM EST 6:46 PM EST
Astronomical Twilight 6:00 AM EST 7:15 PM EST
Moon 7:26 PM EST (1/17) 8:00 AM EST (1/17)
Length of Visible Light 11h 18m
Length of Day
10h 27m
Full, 98% of the Moon is Illuminated
Jan 17
Full
Jan 24
Last Quarter
Jan 30
New
Feb 6
First Quarter
Feb 14
Full

Hourly Weather History & Observations

Time (EST) Temp. Windchill Dew Point Humidity Pressure Visibility Wind Dir Wind Speed Gust Speed Precip Events Conditions
12:15 AM 32.0 °F - 28.4 °F 87% 30.16 in 10.0 mi Calm Calm - N/A   Clear
12:35 AM 32.0 °F - 28.4 °F 87% 30.16 in 10.0 mi Calm Calm - N/A   Clear
12:55 AM 30.2 °F - 28.4 °F 93% 30.16 in 10.0 mi Calm Calm - N/A   Clear
1:15 AM 32.0 °F - 28.4 °F 87% 30.15 in 10.0 mi Calm Calm - N/A   Clear
1:35 AM 30.2 °F - 28.4 °F 93% 30.15 in 10.0 mi Calm Calm - N/A   Clear
1:55 AM 30.2 °F - 28.4 °F 93% 30.15 in 10.0 mi Calm Calm - N/A   Clear
2:15 AM 30.2 °F 25.4 °F 28.4 °F 93% 30.16 in 10.0 mi West 4.6 mph - N/A   Clear
2:35 AM 32.0 °F - 28.4 °F 87% 30.15 in 10.0 mi Calm Calm - N/A   Clear
2:55 AM 30.2 °F - 28.4 °F 93% 30.14 in 10.0 mi Calm Calm - N/A   Clear
3:15 AM 28.4 °F - 28.4 °F 100% 30.15 in 10.0 mi Calm Calm - N/A   Clear
3:35 AM 30.2 °F 26.7 °F 28.4 °F 93% 30.15 in 10.0 mi West 3.5 mph - N/A   Clear
3:55 AM 32.0 °F 28.7 °F 28.4 °F 87% 30.16 in 10.0 mi West 3.5 mph - N/A   Clear
4:15 AM 32.0 °F - 28.4 °F 87% 30.16 in 10.0 mi Calm Calm - N/A   Clear
4:35 AM 30.2 °F - 28.4 °F 93% 30.16 in 10.0 mi Calm Calm - N/A   Clear
4:55 AM 28.4 °F - 28.4 °F 100% 30.15 in 10.0 mi Calm Calm - N/A   Clear
5:15 AM 28.4 °F - 28.4 °F 100% 30.16 in 10.0 mi Calm Calm - N/A   Clear
5:35 AM 28.4 °F - 28.4 °F 100% 30.15 in 10.0 mi Calm Calm - N/A   Clear
5:55 AM 28.4 °F - 28.4 °F 100% 30.15 in 10.0 mi Calm Calm - N/A   Clear
6:15 AM 28.4 °F - 28.4 °F 100% 30.16 in 10.0 mi Calm Calm - N/A   Clear
6:35 AM 28.4 °F - 28.4 °F 100% 30.16 in 10.0 mi Calm Calm - N/A   Clear
6:50 AM 28.4 °F - 28.4 °F 100% 30.16 in 10.0 mi Calm Calm - N/A   Clear
7:50 AM 28.4 °F - 28.4 °F 100% 30.17 in 10.0 mi Calm Calm - N/A   Clear
8:50 AM 37.4 °F - 32.0 °F 81% 30.18 in 10.0 mi Calm Calm - N/A   Clear
9:50 AM 46.4 °F - 35.6 °F 66% 30.19 in 10.0 mi Calm Calm - N/A   Clear
10:50 AM 53.6 °F - 39.2 °F 58% 30.18 in 10.0 mi SW 5.8 mph - N/A   Clear
11:50 AM - - - N/A% 30.15 in 10.0 mi West 11.5 mph - N/A   Clear
12:50 PM 62.6 °F - 44.6 °F 52% 30.11 in 10.0 mi West 11.5 mph 17.3 mph N/A   Scattered Clouds
1:50 PM 64.4 °F - 42.8 °F 45% 30.09 in 10.0 mi WSW 6.9 mph - N/A   Mostly Cloudy
2:50 PM 64.4 °F - 42.8 °F 45% 30.07 in 10.0 mi WSW 9.2 mph - N/A   Scattered Clouds
3:50 PM 64.4 °F - 41.0 °F 42% 30.06 in 10.0 mi WSW 17.3 mph - N/A   Scattered Clouds
4:50 PM 62.6 °F - 42.8 °F 48% 30.04 in 10.0 mi WSW 5.8 mph - N/A   Clear
5:50 PM 59.0 °F - 44.6 °F 59% 30.05 in 10.0 mi Calm Calm - N/A   Scattered Clouds
7:50 PM 55.4 °F - 46.4 °F 72% 30.06 in 10.0 mi SSW 8.1 mph - N/A   Clear
8:15 PM 55.4 °F - 46.4 °F 72% 30.06 in 10.0 mi South 12.7 mph - N/A   Clear
8:35 PM 55.4 °F - 46.4 °F 72% 30.06 in 10.0 mi South 11.5 mph - N/A   Clear
8:55 PM 55.4 °F - 46.4 °F 72% 30.06 in 10.0 mi South 11.5 mph - N/A   Clear
9:15 PM 55.4 °F - 46.4 °F 72% 30.06 in 10.0 mi South 10.4 mph - N/A   Partly Cloudy
9:35 PM 55.4 °F - 48.2 °F 77% 30.06 in 10.0 mi South 11.5 mph - N/A   Partly Cloudy
9:55 PM 53.6 °F - 48.2 °F 82% 30.07 in 10.0 mi SSW 8.1 mph - N/A   Partly Cloudy
10:15 PM 53.6 °F - 48.2 °F 82% 30.07 in 10.0 mi SSW 10.4 mph - N/A   Mostly Cloudy
10:35 PM 53.6 °F - 48.2 °F 82% 30.08 in 10.0 mi SSW 11.5 mph - N/A   Scattered Clouds
10:55 PM 53.6 °F - 48.2 °F 82% 30.08 in 10.0 mi SW 10.4 mph 17.3 mph N/A   Clear
11:15 PM 53.6 °F - 46.4 °F 77% 30.08 in 10.0 mi SW 11.5 mph - N/A   Clear
11:35 PM 53.6 °F - 46.4 °F 77% 30.09 in 10.0 mi SW 10.4 mph - N/A   Clear
11:55 PM 53.6 °F - 44.6 °F 72% 30.08 in 10.0 mi SW 9.2 mph 19.6 mph N/A   Clear